[[{"header":{"parameterUnit":"m.s-1","parameterCategory":1,"la1":30.2991,"la2":30.254,"lo1":-89.0895,"lo2":-89.0444,"dy":0.0017,"dx":0.0017,"nx":28,"ny":28,"refTime":"2025-04-28T09:00:00:Z","depth":0,"parameterNumber":2,"parameterNumberName":"U-component_of_WINDS"},"data":[0,0,0,0,0,0,0,0,0,0,0,0,0,0,0,0,0,0,0,0,0,0,0,0,0,0,0,0,0,0,0,0,0,0,0,0,0,0,0,0,0,0,0,0,0,0,0,0,0,0,0,0,0,0,0,0,0,0,0.6073,0.6073,0,0.6102,0.6102,0.6103,0.611,0.611,0.611,0.611,0.6139,0.614,0.6141,0,0,0,0,0,0,0,0,0,0,0,0,0,0.6021,0.6022,0.6073,0.6073,0.6073,0.6102,0.6102,0.6103,0.611,0.611,0.611,0.611,0.6139,0.614,0.6141,0,0,0,0,0,0,0,0,0,0,0,0,0,0.6046,0.6022,0.6072,0.6081,0.6082,0.6102,0.6102,0.6103,0.611,0.611,0.611,0.611,0.6139,0.614,0.6141,0.6155,0,0,0.6146,0.6146,0,0,0,0,0,0,0,0,0.6045,0.6048,0.6079,0.608,0.6081,0.6102,0.6095,0.612,0.6111,0.61,0.611,0.611,0.6127,0.613,0.6136,0.6157,0.6158,0.6146,0.6147,0.6147,0.6148,0,0,0,0,0,0,0,0.6043,0.6047,0.6084,0.6079,0.6081,0.6082,0.6085,0.61,0.6114,0.61,0.6101,0.6104,0.6128,0.6134,0.6136,0.6158,0.6146,0.6147,0.6148,0.6149,0.6191,0.6191,0,0,0,0,0,0,0.604,0.6045,0.6083,0.6085,0.6062,0.6083,0.6087,0.6096,0.6114,0.6117,0.6105,0.6105,0.6132,0.6135,0.6137,0.6154,0.6147,0.6149,0.615,0.619,0.6191,0.6191,0,0,0,0,0,0,0.6039,0.6043,0.6082,0.6065,0.607,0.6084,0.6094,0.6096,0.6103,0.6118,0.612,0.6109,0.6132,0.6135,0.615,0.6155,0.6149,0.6151,0.619,0.6191,0.6191,0.6187,0,0,0,0,0,0,0.6037,0.6043,0.6049,0.6065,0.6071,0.6095,0.6095,0.6097,0.6105,0.6106,0.6122,0.6124,0.6132,0.6148,0.6152,0.6157,0.6152,0.619,0.619,0.6191,0.6187,0.6188,0.6188,0,0,0,0,0,0.6036,0.6047,0.6049,0.6054,0.6079,0.6096,0.6099,0.6107,0.6106,0.6112,0.612,0.6124,0.6154,0.615,0.6154,0.6159,0.619,0.619,0.6191,0.6187,0.6188,0.6188,0,0,0,0,0,0,0.6031,0.605,0.6052,0.607,0.6081,0.6097,0.6104,0.6108,0.612,0.612,0.6129,0.6133,0.6147,0.6155,0.615,0.6173,0.6172,0.6173,0.6167,0.6168,0.6169,0.6166,0.6153,0,0,0,0,0,0.6032,0.6044,0.606,0.6073,0.6079,0.609,0.6098,0.6103,0.6116,0.612,0.6131,0.6142,0.6154,0.6161,0.6173,0.6188,0.6191,0.6194,0.6194,0.6195,0.6196,0.6203,0.6204,0.6193,0.6193,0.6193,0,0,0.6034,0.6046,0.6053,0.6073,0.6082,0.6094,0.6095,0.6107,0.6116,0.6122,0.6137,0.6145,0.6158,0.6172,0.6179,0.6179,0.6199,0.6195,0.6195,0.6196,0.6204,0.6205,0.6205,0.6193,0.6193,0.6193,0,0,0.6044,0.6055,0.6066,0.6076,0.609,0.6097,0.61,0.6115,0.612,0.6135,0.614,0.615,0.617,0.6179,0.6186,0.6197,0.62,0.6201,0.6203,0.621,0.6211,0.6211,0.6215,0.6216,0.6202,0.6202,0.6202,0,0.6045,0.6063,0.6072,0.6084,0.6092,0.6098,0.6109,0.6118,0.6135,0.614,0.6139,0.6164,0.6174,0.619,0.6192,0.6198,0.6201,0.6199,0.621,0.6211,0.6212,0.6215,0.6216,0.6202,0.6202,0.6202,0.6202,0,0.6063,0.6075,0.6083,0.6099,0.6108,0.6119,0.6129,0.6137,0.6141,0.6148,0.6162,0.6173,0.6187,0.6191,0.6196,0.6208,0.6207,0.6208,0.6207,0.6212,0.6215,0.6217,0.6202,0.6202,0.6202,0.6202,0,0,0.6071,0.6091,0.6094,0.61,0.6116,0.6125,0.6136,0.6149,0.6155,0.6166,0.6175,0.6192,0.6193,0.6201,0.6206,0.6212,0.6219,0.6212,0.6213,0.6212,0.6231,0.623,0.6231,0.6221,0.6221,0.6221,0.623,0,0.6082,0.6103,0.6111,0.6127,0.6138,0.6143,0.6153,0.6163,0.6169,0.6179,0.6186,0.6197,0.6198,0.6202,0.6209,0.6217,0.6223,0.6216,0.6229,0.6229,0.6225,0.6233,0.6232,0.624,0.6231,0.6231,0.6232,0,0.6098,0.6109,0.6127,0.614,0.6144,0.6153,0.6165,0.6174,0.6185,0.6189,0.6197,0.6202,0.6213,0.6211,0.6226,0.6221,0.6226,0.6231,0.6231,0.6233,0.623,0.6234,0.6242,0.6243,0.6234,0.6233,0.6233,0,0.6101,0.6121,0.6133,0.6139,0.6154,0.616,0.6166,0.6177,0.6184,0.6194,0.6198,0.621,0.6216,0.6224,0.6231,0.6229,0.6245,0.6244,0.6248,0.6248,0.6251,0.6251,0.626,0.6255,0.6255,0.6255,0.6255,0,0.6113,0.6123,0.6135,0.6143,0.6154,0.6162,0.6173,0.6179,0.6188,0.6197,0.6202,0.621,0.6219,0.6228,0.6234,0.6244,0.6247,0.6251,0.6252,0.625,0.6249,0.6254,0.6253,0.6256,0.6256,0.6256,0.6256,0,0.6118,0.6127,0.6141,0.6154,0.6157,0.6165,0.6175,0.6183,0.6189,0.62,0.6203,0.6213,0.6223,0.6231,0.6245,0.6248,0.626,0.6261,0.6256,0.6257,0.626,0.6259,0.6272,0.6274,0.6268,0.6268,0.6268,0,0.6125,0.6133,0.6146,0.6152,0.6159,0.6169,0.6175,0.6183,0.619,0.6202,0.6207,0.6218,0.6227,0.6243,0.6252,0.6262,0.6264,0.6267,0.6265,0.6262,0.6263,0.6262,0.6263,0.6267,0.6267,0.6268,0.6268,0,0.6135,0.6138,0.6148,0.6159,0.6167,0.6176,0.6185,0.6189,0.6198,0.6205,0.6216,0.6223,0.6236,0.6247,0.6258,0.6264,0.6267,0.6268,0.6269,0.6267,0.6264,0.6265,0.6256,0.6268,0.6268,0.6268,0.6268,0.6268,0.614,0.6147,0.6157,0.6168,0.6175,0.6183,0.619,0.6197,0.6206,0.6218,0.6222,0.6232,0.6242,0.6256,0.6263,0.6271,0.6271,0.6273,0.6273,0.6274,0.6273,0.6263,0.6273,0.6273,0.6273,0.6273,0.6273,0,0.615,0.6157,0.6166,0.6178,0.6186,0.6188,0.6198,0.6204,0.6213,0.6222,0.623,0.6242,0.6252,0.626,0.627,0.6275,0.6276,0.6277,0.6277,0.6278,0.6273,0.627,0.6276,0.6276,0.6276,0.6276,0.6276,0.6276,0.6156,0.6167,0.6172,0.6186,0.6193,0.6203,0.6208,0.6215,0.6222,0.6235,0.6243,0.6248,0.6256,0.6267,0.6275,0.6278,0.6281,0.6281,0.6284,0.6279,0.6278,0.6278,0.6276,0.6282,0.6282,0.6288,0.6288,0.6288]},{"header":{"parameterUnit":"m.s-1","parameterCategory":1,"la1":30.2991,"la2":30.254,"lo1":-89.0895,"lo2":-89.0444,"dy":0.0017,"dx":0.0017,"nx":28,"ny":28,"refTime":"2025-04-28T09:00:00:Z","depth":0,"parameterNumber":3,"parameterNumberName":"V-component_of_WINDS"},"data":[0,0,0,0,0,0,0,0,0,0,0,0,0,0,0,0,0,0,0,0,0,0,0,0,0,0,0,0,0,0,0,0,0,0,0,0,0,0,0,0,0,0,0,0,0,0,0,0,0,0,0,0,0,0,0,0,0,0,2.5757,2.5758,0,2.583,2.5831,2.5832,2.5817,2.5816,2.5814,2.5813,2.5885,2.5888,2.5891,0,0,0,0,0,0,0,0,0,0,0,0,0,2.5601,2.5604,2.5757,2.5758,2.5759,2.583,2.5831,2.5832,2.5817,2.5816,2.5814,2.5812,2.5884,2.5887,2.5891,0,0,0,0,0,0,0,0,0,0,0,0,0,2.5671,2.5605,2.5757,2.576,2.5761,2.583,2.5831,2.5832,2.5818,2.5816,2.5814,2.5812,2.5882,2.5887,2.5892,2.596,0,0,2.5906,2.5908,0,0,0,0,0,0,0,0,2.5667,2.5676,2.5759,2.576,2.5761,2.5812,2.5802,2.5875,2.5818,2.5796,2.5813,2.5811,2.5862,2.5868,2.5886,2.5964,2.5967,2.5906,2.5909,2.5911,2.5913,0,0,0,0,0,0,0,2.5662,2.5673,2.5786,2.576,2.5762,2.5757,2.5764,2.5816,2.5839,2.5798,2.5797,2.5806,2.5862,2.5882,2.5888,2.5968,2.5906,2.5911,2.5913,2.5915,2.6102,2.6104,0,0,0,0,0,0,2.5656,2.5669,2.5784,2.5788,2.5708,2.5761,2.577,2.5798,2.5839,2.5843,2.5808,2.5805,2.5875,2.5882,2.589,2.5972,2.5911,2.5916,2.5918,2.61,2.6103,2.6105,0,0,0,0,0,0,2.5653,2.5667,2.5781,2.5728,2.5743,2.5766,2.5798,2.5801,2.582,2.5846,2.585,2.5823,2.5873,2.5884,2.5943,2.5974,2.5918,2.5922,2.6098,2.6101,2.6104,2.6136,0,0,0,0,0,0,2.5649,2.5666,2.5693,2.5729,2.5745,2.5833,2.58,2.5803,2.5828,2.5826,2.5862,2.5866,2.5873,2.5936,2.5947,2.5979,2.5926,2.6095,2.6099,2.6103,2.6132,2.614,2.6146,0,0,0,0,0,2.5643,2.5699,2.5695,2.5709,2.5781,2.5835,2.5844,2.5852,2.5831,2.5858,2.5874,2.5865,2.5969,2.5942,2.5955,2.5989,2.6093,2.6098,2.6103,2.6129,2.6138,2.6146,0,0,0,0,0,0,2.5666,2.5704,2.57,2.5769,2.5799,2.5833,2.5867,2.5862,2.5898,2.5893,2.59,2.5908,2.5968,2.5984,2.5954,2.6056,2.6028,2.6035,2.6043,2.6052,2.6059,2.6053,2.593,0,0,0,0,0,2.5679,2.5722,2.5752,2.5811,2.5826,2.5844,2.5868,2.5871,2.5902,2.5914,2.5935,2.5964,2.6003,2.6029,2.6066,2.6134,2.6141,2.6164,2.6171,2.6176,2.6183,2.6217,2.6227,2.6121,2.6121,2.6121,0,0,2.5707,2.5733,2.5759,2.5816,2.584,2.5881,2.5855,2.5901,2.5931,2.5921,2.5978,2.5994,2.6026,2.609,2.6119,2.6105,2.6213,2.6183,2.6187,2.619,2.6223,2.6233,2.6242,2.6124,2.6124,2.6123,0,0,2.5779,2.5804,2.5854,2.5878,2.5914,2.5925,2.5937,2.5971,2.5981,2.6038,2.6031,2.6066,2.6134,2.6157,2.6177,2.6255,2.6247,2.6267,2.6304,2.6338,2.6346,2.6353,2.6379,2.6389,2.6273,2.6274,2.6274,0,2.5808,2.5873,2.588,2.5927,2.5951,2.5943,2.5993,2.6015,2.6061,2.6077,2.6062,2.6145,2.6167,2.6234,2.6253,2.627,2.6282,2.6263,2.6344,2.6352,2.6359,2.6383,2.6393,2.6276,2.6275,2.6275,2.6275,0,2.5906,2.5951,2.5987,2.6031,2.6059,2.6107,2.612,2.6148,2.6148,2.616,2.6216,2.6242,2.6284,2.63,2.6301,2.6367,2.6357,2.6343,2.6314,2.6371,2.6394,2.6404,2.6279,2.6278,2.6277,2.6277,0,0,2.5995,2.6042,2.6055,2.6074,2.6112,2.6146,2.6192,2.6233,2.6255,2.6287,2.6324,2.6381,2.6367,2.6391,2.6394,2.6423,2.648,2.6405,2.6406,2.6417,2.6552,2.6561,2.6572,2.6475,2.6477,2.6479,2.6549,0,2.6069,2.6152,2.6159,2.6233,2.6272,2.6265,2.6305,2.6331,2.6344,2.6378,2.639,2.643,2.641,2.6424,2.6453,2.6467,2.6507,2.6463,2.6508,2.651,2.6499,2.6585,2.6595,2.666,2.6558,2.656,2.6561,0,2.6167,2.6201,2.6279,2.6309,2.6326,2.6362,2.6398,2.6432,2.6461,2.6467,2.6492,2.649,2.6536,2.6506,2.6567,2.6537,2.6556,2.6565,2.6568,2.6572,2.6538,2.6589,2.6681,2.6691,2.6575,2.6574,2.6573,0,2.6221,2.6287,2.6341,2.6358,2.6395,2.642,2.6436,2.6464,2.6487,2.6519,2.6533,2.657,2.6589,2.6617,2.6624,2.6602,2.6684,2.6656,2.6689,2.6689,2.6706,2.6705,2.6801,2.6721,2.6721,2.672,2.672,0,2.6302,2.635,2.6366,2.6399,2.6451,2.6458,2.6509,2.6523,2.6547,2.6582,2.6577,2.661,2.6618,2.6651,2.6657,2.6705,2.6715,2.672,2.672,2.6719,2.6719,2.6731,2.6726,2.6723,2.6722,2.6722,2.6722,0,2.6372,2.6385,2.6444,2.6474,2.6482,2.6519,2.6544,2.6575,2.6586,2.6629,2.664,2.6656,2.6695,2.6705,2.6751,2.6755,2.6812,2.6809,2.6802,2.6802,2.6834,2.683,2.6941,2.6955,2.6866,2.6867,2.6868,0,2.6423,2.6459,2.6492,2.6515,2.6533,2.657,2.6594,2.6601,2.6626,2.666,2.6686,2.6724,2.6755,2.6817,2.6832,2.6867,2.6864,2.69,2.6869,2.6866,2.6862,2.6859,2.6862,2.6906,2.6907,2.6907,2.6908,0,2.651,2.6514,2.6549,2.6585,2.6613,2.6642,2.667,2.6689,2.67,2.6727,2.6766,2.679,2.6837,2.6874,2.6908,2.6923,2.6917,2.6918,2.6927,2.6926,2.692,2.6922,2.6817,2.6915,2.6914,2.6914,2.6914,2.6913,2.657,2.6601,2.6629,2.6667,2.6689,2.6714,2.6744,2.6758,2.6792,2.6831,2.6833,2.6875,2.69,2.6946,2.6963,2.6995,2.6984,2.6998,2.7001,2.7004,2.7006,2.6916,2.7001,2.7001,2.7001,2.7001,2.7001,0,2.6656,2.6673,2.6708,2.6747,2.6776,2.6768,2.6797,2.6822,2.686,2.6885,2.6915,2.6959,2.6994,2.7012,2.7046,2.7068,2.7066,2.7077,2.7075,2.7078,2.7015,2.7003,2.7078,2.7078,2.7078,2.7078,2.7078,2.7078,2.6704,2.6755,2.6762,2.6823,2.6839,2.6881,2.6898,2.6921,2.694,2.699,2.702,2.7031,2.7052,2.7088,2.7119,2.7123,2.7136,2.7148,2.715,2.7091,2.7083,2.7075,2.7064,2.7151,2.7151,2.721,2.7211,2.7211]}]]